Location: Chuathbaluk
(61.5726°N, 159.2454°W)
Time: 13:13:13
(UTC+00:00)

NUDT-PHONESAT - Pass Details

Date: 19 January 2021
Orbit: 480 x 498 km, 97.4° (Epoch: 01 March)

Event Time Altitude Azimuth Distance (km) Brightness Sun altitude
Rises 05:54:54 0° 224° (SW) 2,574 ? -25.7°
Reaches altitude 10° 05:58:34 10° 263° (W) 1,704 ? -26.1°
Maximum altitude 05:59:30 11° 278° (W) 1,657 ? -26.3°
Drops below altitude 10° 06:00:28 10° 293° (WNW) 1,710 ? -26.4°
Sets 06:04:10 0° 333° (NNW) 2,606 ? -26.8°
